Grants-Milan, NM

7:12 PM MDT on May 21, 2018 (GMT -0600)
Grants-Milan Municipal

Weather History for KGNT - May, 2013

Change the Weather History Date:

Tuesday, May 28, 2013

  Actual Average Record
Temperature  
Mean Temperature 56 °F -  
Max Temperature 78 °F 80 °F 91 °F (2000)
Min Temperature 34 °F 42 °F 27 °F (2012)
Degree Days  
Heating Degree Days 9    
Growing Degree Days 6 (Base 50)    
Moisture  
Dew Point 10 °F    
Average Humidity 16    
Maximum Humidity 36    
Minimum Humidity 7    
Precipitation  
Precipitation 0.00 in - - ()
Sea Level Pressure  
Sea Level Pressure 29.93 in    
Wind  
Wind Speed 6 mph (West)    
Max Wind Speed 22 mph    
Max Gust Speed 33 mph    
Visibility 10 miles    
Events      
Averages and records for this station are not official NWS values.
T = Trace of Precipitation, MM = Missing Value Source: NWS Daily Summary

Daily Weather History Graph

Daily Weather History Graph

Search for Another Location

Airport or City:

Astronomy

May. 28, 2013 Rise Set
Actual Time 5:59 AM MDT 8:18 PM MDT
Civil Twilight 5:30 AM MDT 8:47 PM MDT
Nautical Twilight 4:55 AM MDT 9:23 PM MDT
Astronomical Twilight 4:16 AM MDT 10:02 PM MDT
Moon 11:49 PM MDT (5/28) 9:48 AM MDT (5/28)
Length of Visible Light 15h 16m
Length of Day
14h 18m
Waning Gibbous, 82% of the Moon is Illuminated
May 28
Waning Gibbous
May 31
Last Quarter
Jun 8
New
Jun 16
First Quarter
Jun 23
Full

Hourly Weather History & Observations

Time (MDT) Temp. Windchill Dew Point Humidity Pressure Visibility Wind Dir Wind Speed Gust Speed Precip Events Conditions
12:15 AM 53.1 °F - 12.9 °F 20% 30.02 in 10.0 mi NW 5.8 mph - N/A   Clear
12:35 AM 54.0 °F - 12.2 °F 19% 30.02 in 10.0 mi Calm Calm - N/A   Clear
12:55 AM 51.4 °F - 12.2 °F 21% 30.03 in 10.0 mi West 4.6 mph - N/A   Clear
1:15 AM 47.8 °F - 11.8 °F 23% 30.02 in 10.0 mi Calm Calm - N/A   Clear
1:35 AM 45.9 °F - 11.3 °F 25% 30.02 in 10.0 mi Calm Calm - N/A   Clear
1:55 AM 46.4 °F - 10.6 °F 23% 30.01 in 10.0 mi Calm Calm - N/A   Clear
2:15 AM 46.0 °F - 10.0 °F 23% 30.01 in 10.0 mi Calm Calm - N/A   Clear
2:35 AM 46.4 °F - 11.8 °F 25% 30.01 in 10.0 mi Calm Calm - N/A   Clear
2:55 AM 42.8 °F - 9.7 °F 26% 30.01 in 10.0 mi Calm Calm - N/A   Clear
3:15 AM 36.3 °F - 7.2 °F 30% 30.00 in 10.0 mi Calm Calm - N/A   Clear
3:35 AM 36.9 °F - 8.6 °F 31% 29.99 in 10.0 mi Calm Calm - N/A   Clear
3:55 AM 38.5 °F - 10.8 °F 32% 30.00 in 10.0 mi Calm Calm - N/A   Clear
4:15 AM 36.7 °F - 7.9 °F 30% 30.00 in 10.0 mi Calm Calm - N/A   Clear
4:35 AM 34.0 °F 28.8 °F 6.1 °F 31% 30.00 in 10.0 mi North 5.8 mph - N/A   Clear
4:55 AM 35.8 °F 33.0 °F 7.7 °F 31% 30.01 in 10.0 mi NW 3.5 mph - N/A   Clear
5:15 AM 36.3 °F 32.5 °F 9.3 °F 33% 30.00 in 10.0 mi West 4.6 mph - N/A   Clear
5:35 AM 37.0 °F - 9.9 °F 33% 30.00 in 10.0 mi Calm Calm - N/A   Clear
5:55 AM 35.1 °F - 9.0 °F 34% 29.99 in 10.0 mi Calm Calm - N/A   Clear
6:15 AM 35.2 °F - 10.6 °F 36% 29.99 in 10.0 mi Calm Calm - N/A   Clear
6:35 AM 34.0 °F 31.0 °F 7.9 °F 34% 29.99 in 10.0 mi NNW 3.5 mph - N/A   Clear
6:55 AM 37.6 °F - 9.0 °F 31% 30.00 in 10.0 mi Calm Calm - N/A   Clear
7:15 AM 42.8 °F - 11.3 °F 28% 29.99 in 10.0 mi Calm Calm - N/A   Clear
7:35 AM 44.6 °F 43.1 °F 12.2 °F 27% 30.00 in 10.0 mi NNW 3.5 mph - N/A   Clear
7:55 AM 47.5 °F - 12.7 °F 25% 30.00 in 10.0 mi Calm Calm - N/A   Clear
8:15 AM 50.9 °F - 13.5 °F 22% 29.99 in 10.0 mi North 3.5 mph - N/A   Clear
8:35 AM 53.2 °F - 14.2 °F 21% 29.99 in 10.0 mi Calm Calm - N/A   Clear
8:55 AM 56.8 °F - 14.9 °F 19% 29.99 in 10.0 mi ENE 3.5 mph - N/A   Clear
9:15 AM 62.1 °F - 14.4 °F 16% 29.98 in 10.0 mi East 8.1 mph - N/A   Clear
9:35 AM 64.8 °F - 13.6 °F 14% 29.98 in 10.0 mi East 6.9 mph - N/A   Clear
9:55 AM 67.6 °F - 12.2 °F 12% 29.97 in 10.0 mi East 6.9 mph - N/A   Clear
10:15 AM 68.9 °F - 9.0 °F 10% 29.96 in 10.0 mi SSW 6.9 mph - N/A   Clear
10:35 AM 70.0 °F - 7.5 °F 9% 29.96 in 10.0 mi SW 8.1 mph 11.5 mph N/A   Clear
10:55 AM 71.2 °F - 10.9 °F 10% 29.95 in 10.0 mi WSW 13.8 mph 21.9 mph N/A   Clear
11:15 AM 72.5 °F - 9.3 °F 9% 29.94 in 10.0 mi SSW 12.7 mph 19.6 mph N/A   Clear
11:35 AM 72.9 °F - 7.7 °F 8% 29.93 in 10.0 mi WSW 20.7 mph 33.4 mph N/A   Clear
11:55 AM 73.9 °F - 7.7 °F 8% 29.93 in 10.0 mi West 15.0 mph 25.3 mph N/A   Clear
12:15 PM 74.3 °F - 7.5 °F 8% 29.93 in 10.0 mi SW 18.4 mph 24.2 mph N/A   Clear
12:35 PM 73.4 °F - 7.7 °F 8% 29.92 in 10.0 mi SW 13.8 mph 18.4 mph N/A   Clear
12:55 PM 75.0 °F - 8.6 °F 8% 29.92 in 10.0 mi SW 11.5 mph 18.4 mph N/A   Clear
1:15 PM 75.6 °F - 7.0 °F 7% 29.91 in 10.0 mi West 15.0 mph 24.2 mph N/A   Clear
1:35 PM 75.0 °F - 6.3 °F 7% 29.91 in 10.0 mi WSW 11.5 mph 20.7 mph N/A   Clear
1:55 PM 73.9 °F - 6.3 °F 7% 29.90 in 10.0 mi SW 15.0 mph 24.2 mph N/A   Clear
2:15 PM 74.5 °F - 5.5 °F 7% 29.90 in 10.0 mi WSW 11.5 mph - N/A   Clear
2:35 PM 75.4 °F - 5.5 °F 7% 29.89 in 10.0 mi WSW 16.1 mph 26.5 mph N/A   Clear
2:55 PM 74.7 °F - 6.6 °F 7% 29.88 in 10.0 mi WSW 15.0 mph 23.0 mph N/A   Clear
3:15 PM 76.5 °F - 7.7 °F 7% 29.87 in 10.0 mi West 9.2 mph 21.9 mph N/A   Clear
3:35 PM 76.8 °F - 7.2 °F 7% 29.86 in 10.0 mi WSW 15.0 mph 24.2 mph N/A   Clear
3:55 PM 78.3 °F - 7.5 °F 7% 29.85 in 10.0 mi WSW 11.5 mph 25.3 mph N/A   Clear
4:15 PM 76.1 °F - 7.9 °F 7% 29.83 in 10.0 mi SW 6.9 mph - N/A   Clear
4:35 PM 76.8 °F - 10.2 °F 8% 29.83 in 10.0 mi West 12.7 mph 24.2 mph N/A   Clear
4:55 PM 77.4 °F - 9.5 °F 7% 29.83 in 10.0 mi West 10.4 mph 21.9 mph N/A   Clear
5:15 PM 76.1 °F - 9.9 °F 8% 29.82 in 10.0 mi WSW 13.8 mph 24.2 mph N/A   Clear
5:35 PM 76.3 °F - 10.2 °F 8% 29.81 in 10.0 mi West 12.7 mph 20.7 mph N/A   Clear
5:55 PM 75.6 °F - 11.3 °F 9% 29.81 in 10.0 mi West 21.9 mph 25.3 mph N/A   Clear
6:15 PM 74.3 °F - 11.7 °F 9% 29.82 in 10.0 mi West 18.4 mph 31.1 mph N/A   Clear
6:35 PM 74.3 °F - 11.1 °F 9% 29.82 in 10.0 mi West 15.0 mph 26.5 mph N/A   Clear
6:55 PM 72.3 °F - 11.1 °F 10% 29.82 in 10.0 mi West 17.3 mph 28.8 mph N/A   Clear
7:15 PM 71.8 °F - 12.2 °F 10% 29.82 in 10.0 mi West 18.4 mph 25.3 mph N/A   Clear
7:35 PM 71.2 °F - 12.6 °F 10% 29.82 in 10.0 mi West 20.7 mph 28.8 mph N/A   Clear
7:55 PM 70.5 °F - 12.7 °F 11% 29.83 in 10.0 mi West 18.4 mph 24.2 mph N/A   Clear
8:15 PM 68.9 °F - 12.0 °F 11% 29.83 in 10.0 mi West 12.7 mph 18.4 mph N/A   Clear
8:35 PM 67.6 °F - 10.9 °F 11% 29.84 in 10.0 mi West 17.3 mph 23.0 mph N/A   Clear
8:55 PM 66.6 °F - 10.4 °F 11% 29.85 in 10.0 mi West 13.8 mph - N/A   Clear
9:15 PM 66.2 °F - 10.0 °F 11% 29.86 in 10.0 mi West 12.7 mph - N/A   Clear
9:35 PM 64.2 °F - 9.7 °F 12% 29.87 in 10.0 mi West 10.4 mph - N/A   Clear
9:55 PM 62.6 °F - 10.2 °F 13% 29.87 in 10.0 mi West 10.4 mph - N/A   Clear
10:15 PM 62.6 °F - 11.5 °F 14% 29.88 in 10.0 mi West 10.4 mph 17.3 mph N/A   Clear
10:35 PM 62.2 °F - 12.7 °F 14% 29.88 in 10.0 mi WSW 6.9 mph - N/A   Clear
10:55 PM 62.1 °F - 13.1 °F 15% 29.88 in 10.0 mi West 13.8 mph 19.6 mph N/A   Clear
11:15 PM 62.2 °F - 13.8 °F 15% 29.88 in 10.0 mi West 9.2 mph 19.6 mph N/A   Clear
11:35 PM 61.7 °F - 16.3 °F 17% 29.89 in 10.0 mi West 10.4 mph 17.3 mph N/A   Scattered Clouds
11:55 PM 61.2 °F - 18.7 °F 19% 29.88 in 10.0 mi West 11.5 mph 17.3 mph N/A   Clear